Regional Weather Roundup
Issued by NWS

Home | Current Version | Previous Version | Text Only | Print | Product List | Glossary Off
Versions: 1 2 3 4 5 6 7 8 9 10 11 12 13 14 15 16 17 18 19 20 21 22 23 24 25 26 27 28 29 30 31 32 33 34 35 36 37 38 39 40 41 42 43 44 45 46 47 48 49 50

000
ASUS43 KOAX 220210
RWRNE

WEATHER ROUNDUP FOR NEBRASKA
NATIONAL WEATHER SERVICE OMAHA NE
900 PM CDT WED JUN 21 2017

NOTES: SATELLITE DATA IS BEING USED TO AUGMENT CLOUD COVER ABOVE
       12000 FEET.
       "FAIR" INDICATES FEW OR NO CLOUDS BELOW 12,000 FEET WITH NO
       SIGNIFICANT WEATHER AND/OR OBSTRUCTIONS TO VISIBILITY.

  * THESE STATIONS DO NOT REPORT WEATHER SUCH AS RAIN...SNOW OR FOG.

NEZ001>004-019>022-054>056-220300-
NEBRASKA PANHANDLE

CITY           SKY/WX    TMP DP  RH WIND       PRES   REMARKS
SCOTTSBLUFF    CLEAR     83  50  31 NE8       29.78S
ALLIANCE       CLEAR     83  57  41 E5        29.78S
CHADRON        CLEAR     81  59  47 E6        29.72F
GORDON         FAIR      83  61  46 E7        29.76S
KIMBALL        CLEAR     82  51  34 SE6       29.86F
SIDNEY         CLEAR     84  51  31 E3        29.83F
$$

NEZ057>060-069>072-079>082-220300-
SOUTHWEST NEBRASKA

CITY           SKY/WX    TMP DP  RH WIND       PRES   REMARKS
NORTH PLATTE   CLEAR     88  55  32 N7        29.70S
IMPERIAL       CLEAR     87  49  26 N7        29.74S
LEXINGTON      PTCLDY    85  62  46 S10       29.69R
MCCOOK         CLEAR     91  54  28 N7        29.67S
OGALLALA       CLEAR     88  49  26 N6        29.74F
$$

NEZ005>010-023>029-035>040-094-220300-
NORTH CENTRAL NEBRASKA

CITY           SKY/WX    TMP DP  RH WIND       PRES   REMARKS
VALENTINE      CLOUDY    91  53  27 NE7       29.70S
AINSWORTH      MOCLDY    85  64  49 E5        29.71S
BROKEN BOW     PTCLDY    81  67  62 NW5       29.69S
O`NEILL        CLOUDY    86  68  53 NE6       29.68F
ORD            PTCLDY    87  68  52 S3        29.64F HX  90
THEDFORD       PTCLDY    87  59  37 E5        29.73S
$$

NEZ041-046>049-061>064-073>077-083>087-220300-
SOUTH CENTRAL NEBRASKA

CITY           SKY/WX    TMP DP  RH WIND       PRES   REMARKS
GRAND ISLAND   CLOUDY    89  70  53 S16       29.66S HX  94
AURORA         PTCLDY    89  66  46 S14G22    29.67S HX  91
HASTINGS       CLOUDY    89  66  46 S13       29.70R HX  91
HEBRON         CLEAR     88  57  35 S8        29.71R
HOLDREGE       CLOUDY    84  64  51 S15G23    29.69F
KEARNEY *      CLOUDY    90  68  48 S17       29.67F HX  93
YORK           CLEAR     88  64  45 S17G24    29.67S
$$

NEZ011>018-030>034-042>045-220300-
NORTHEAST NEBRASKA

CITY           SKY/WX    TMP DP  RH WIND       PRES   REMARKS
NORFOLK        CLOUDY    86  68  54 S8        29.63R
ALBION         PTCLDY    87  70  57 S5        29.64F HX  91
BLAIR          CLEAR     88  60  39 S20G26    29.68R
FREMONT        PTCLDY    89  60  38 S14       29.66R
TEKAMAH        CLEAR     90  63  40 S14       29.64R HX  91
WAYNE          CLOUDY    88  71  57 S8        29.63S HX  93
$$

NEZ050>053-065>068-078-088>093-220300-
SOUTHEAST NEBRASKA

CITY           SKY/WX    TMP DP  RH WIND       PRES   REMARKS
LINCOLN        CLOUDY    86  61  42 S16       29.67F
OMAHA EPPLEY   PTCLDY    89  61  38 S17       29.67S
BEATRICE       CLEAR     86  62  43 S14G21    29.71S
FALLS CITY     CLEAR     83  63  50 S9        29.74F
NEBRASKA CITY  CLEAR     84  59  42 S20G25    29.72S
PLATTSMOUTH    CLEAR     84  57  38 S12G21    29.70S
$$

NEZ044-045-051>053-067-220300-
OMAHA AREA

CITY           SKY/WX    TMP DP  RH WIND       PRES   REMARKS
OMAHA EPPLEY   PTCLDY    89  61  38 S17       29.67S
BLAIR          CLEAR     88  60  39 S20G26    29.68R
FREMONT        PTCLDY    89  60  38 S14       29.66R
MILLARD        CLEAR     89  64  41 S10G16    29.68S HX  90
OFFUTT AFB     CLEAR     86  60  41 S13       29.68S
PLATTSMOUTH    CLEAR     84  57  38 S12G21    29.70S
WAHOO          FAIR      87  58  36 S12       29.67R
$$




USA.gov is the U.S. government's official web portal to all federal, state and local government web resources and services.